{"data":{"norad_id":59439,"intl_designator":"2024-065U","name":"STARLINK-31708","alt_names":[],"object_type":"PAYLOAD","status":"ACTIVE","operator":null,"country":"US","launch_date":"2024-04-07","launch_site_code":"AFWTR","launch_vehicle":null,"mission":null,"orbit_class":"UNKNOWN","rcs_meters":null,"size_class":null,"mass_kg":null,"dimensions":null,"purposes":["comms"],"wikipedia_slug":null,"has_3d_model":false,"image_url":null,"decayed_at":null,"tle_current":{"epoch":"2026-09-21T21:47:14.698464Z","epoch_age_seconds":44081,"freshness":"FRESH","line1":"1 59439U 24065U   26264.90780901  .00003432  00000+0  11272-3 0  9998","line2":"2 59439  53.1592  87.2545 0000829 112.3575 247.7516 15.34377413139015","mean_motion":15.34377413,"eccentricity":8.29e-5,"inclination_deg":53.1592,"raan_deg":87.2545,"arg_perigee_deg":112.3575,"mean_anomaly_deg":247.7516,"bstar":0.00011272,"rev_number":13901,"period_min":93.849139579325,"perigee_km":462.2032631333,"apogee_km":463.33748557597,"semimajor_km":6840.9073743546,"source":"CELESTRAK","updated_at":"2026-09-22T09:00:48.942473Z"}}}